sat.trackr.live / text

‹ back to catalog

STARLINK-34880

NORAD 65327 · 2025-189E

PAYLOAD ACTIVE UNKNOWN

§ Identity

Operator
Country
US
Launch date
2025-08-27
Launch site
AFETR
Launch vehicle
Mass (kg)
RCS (m²)

Purposes: comms

External: N2YO · Heavens-Above · Gunter

§ Orbital elements

Epoch: 2026-09-20T13:45:08.839872Z

Period
93.85 min
Inclination
53.1609°
Eccentricity
0.0001061
Mean motion
15.34403775 rev/d
Perigee alt
462.0 km
Apogee alt
463.4 km
Semi-major
6,840.8 km
B*
7.4783e-4
RAAN
19.4568°
Arg perigee
97.9915°
Mean anomaly
262.1209°
Rev number
6,097

§ Raw data

STARLINK-348801 65327U 25189E   26263.57301898  .00024977  00000+0  74783-3 0  99982 65327  53.1609  19.4568 0001061  97.9915 262.1209 15.34403775 60973

JSON: /api/v1/satellites/65327 · /tle

For live sub-satellite position, see the globe view (requires WebGL).

§ Visibility from observer

Set your observer location to see the next 7 days of passes ≥ 10°. The values pass through the URL so the page stays shareable.

No JS? Fill the form by hand. The geolocation button needs JavaScript.